Regional Weather Roundup
Issued by NWS Midland/Odessa, TX

Home | Current Version | Previous Version | Text Only | Print | Product List | Glossary On
Versions: 1 2 3 4 5 6 7 8 9 10 11 12 13 14 15 16 17 18 19 20 21 22 23 24 25 26 27 28 29 30 31 32 33 34 35 36 37 38 39 40 41 42 43 44 45 46 47 48 49 50
000
ASUS44 KMAF 221810
RWRMAF
MIDLAND AREA WEATHER ROUNDUP
NATIONAL WEATHER SERVICE MIDLAND TX
1200 PM CST MON DEC 22 2014

...IN SOUTHWEST TEXAS AND SOUTHEAST NEW MEXICO...

CITY           SKY/WX    TMP DP  RH WIND       PRES   REMARKS
ALPINE         PTSUNNY   63  30  28 W13G18    29.93F
ANDREWS        FAIR      64  32  30 NW18G26   29.76S
ARTESIA        CLOUDY    63  32  31 W16       29.79F
BIG SPRING     CLOUDY    61  32  33 NW10      29.78S
CARLSBAD       CLOUDY    68  30  24 W16       29.77F
DRYDEN           N/A     76  30  18 SW17G28   29.74
FORT STOCKTON  PTSUNNY   72  30  21 W20G26    29.78F
GUAD PASS      NOT AVBL
HOBBS          SUNNY     64  32  29 W23G30    29.78F
MARFA          PTSUNNY   59  30  33 W17       29.94F
MIDLAND AIRPK  CLOUDY    67  32  26 NW21      29.76F
MIDLAND INTL   CLOUDY    67  32  27 NW23G29   29.76F
ODESSA         CLOUDY    66  30  26 W15       29.77F
PECOS          PTSUNNY   67  33  28 W23G30    29.78F
PRESIDIO       FAIR      67  31  26 W5        29.88F
SEMINOLE       CLOUDY    56  33  42 N13       29.79S
SNYDER         CLOUDY    58  36  43 NW9       29.75F
WINK           PTSUNNY   68  30  24 W15       29.76F
$$
...OTHER STATIONS IN TEXAS...

CITY           SKY/WX    TMP DP  RH WIND       PRES   REMARKS
ABILENE        MOSUNNY   62  36  37 N15       29.70F
AMARILLO       CLOUDY    49  27  42 N20G28    29.75R
AUSTIN         PTSUNNY   67  55  65 S12       29.68F
BROWNSVILLE    SUNNY     75  63  66 S22G30    29.75F
CORPUS CHRISTI CLOUDY    66  61  84 SW12      29.76F
DALLAS FTW     MOSUNNY   63  42  46 W10       29.59F
DEL RIO        CLOUDY    55  52  89 CALM      29.77F
EL PASO        MOSUNNY   61  33  35 VRB6      29.90F
HOUSTON INT    PTSUNNY   70  59  68 SW15G23   29.71F
LUBBOCK        CLOUDY    53  32  44 N13G21    29.75F
SAN ANGELO     MOSUNNY   71  34  25 W18       29.72F
SAN ANTONIO    CLOUDY    63  53  70 W9        29.73F
WACO           MOSUNNY   69  45  41 W16       29.62F
WICHITA FALLS  NOT AVBL
$$
...OTHER LOCATIONS IN NEW MEXICO...

CITY           SKY/WX    TMP DP  RH WIND       PRES   REMARKS
ALAMAGORDO     MOSUNNY   57  36  44 SW10      29.87F
ALBUQUERQUE    MOSUNNY   53  33  46 SW7       29.87F
CANNON AFB     NOT AVBL
CLOVIS         PTSUNNY   46  27  46 N16       29.80S WCI  40
HOLLOMAN AFB   NOT AVBL
ROSWELL        CLOUDY    66  30  26 NW16      29.77F
RUIDOSO        MOSUNNY   50  25  37 NW24G38   29.85F
SANTA FE       MOSUNNY   50  30  46 W20G28    29.82F
TRUTH OR CONSE SUNNY     61  32  33 NW15      29.90F
TUCUMCARI      CLOUDY    48  27  44 N7        29.80F
$$


USA.gov is the U.S. government's official web portal to all federal, state and local government web resources and services.